Muscle Shoals, AL

10:05 AM CST on February 20, 2018 (GMT -0600)
Northwest Alabama Regional

Weather History for KMSL - October, 2012

Change the Weather History Date:

Sunday, October 7, 2012

  Actual Average Record
Temperature  
Mean Temperature 56 °F 65 °F  
Max Temperature 64 °F 77 °F 93 °F (1916)
Min Temperature 48 °F 53 °F 34 °F (1991)
Degree Days  
Heating Degree Days 9 3  
Month to date heating degree days 20 17  
Since 1 July heating degree days 31 32  
Cooling Degree Days 0 3  
Month to date cooling degree days 13 24  
Year to date cooling degree days 2142 1826  
Growing Degree Days 4 (Base 50)    
Moisture  
Dew Point 41 °F    
Average Humidity 61    
Maximum Humidity 86    
Minimum Humidity 36    
Precipitation  
Precipitation 0.07 in 0.10 in 2.21 in (1975)
Month to date precipitation 1.07 0.75  
Year to date precipitation 34.67 40.18  
Snow  
Snow 0.00 in - - ()
Month to date snowfall 0.0  
Since 1 July snowfall 0.0  
Since 1 September snowfall 0.0  
Snow Depth 0.00 in    
Sea Level Pressure  
Sea Level Pressure 30.17 in    
Wind  
Wind Speed 6 mph (North)    
Max Wind Speed 12 mph    
Max Gust Speed 20 mph    
Visibility 10 miles    
Events Rain    
T = Trace of Precipitation, MM = Missing Value Source: NWS Daily Summary

Daily Weather History Graph

Daily Weather History Graph

Search for Another Location

Airport or City:

Trip Planner

Search our weather history database for the weather conditions in past years. The results will help you decide how hot, cold, wet, or windy it might be!

Date:

Astronomy

Oct. 07, 2012 Rise Set
Actual Time 6:50 AM CDT 6:25 PM CDT
Civil Twilight 6:24 AM CDT 6:50 PM CDT
Nautical Twilight 5:55 AM CDT 7:19 PM CDT
Astronomical Twilight 5:26 AM CDT 7:49 PM CDT
Moon 11:46 PM CDT (10/7) 1:17 PM CDT (10/7)
Length of Visible Light 12h 25m
Length of Day
11h 35m
Waning Gibbous, 56% of the Moon is Illuminated
Oct 7
Waning Gibbous
Oct 8
Last Quarter
Oct 15
New
Oct 21
First Quarter
Oct 29
Full

Hourly Weather History & Observations

Time (CDT) Temp. Dew Point Humidity Pressure Visibility Wind Dir Wind Speed Gust Speed Precip Events Conditions
12:08 AM 48.2 °F 42.8 °F 82% 30.16 in 3.0 mi NNE 8.1 mph - 0.11 in Rain Heavy Rain
12:53 AM 46.9 °F 43.0 °F 86% 30.13 in 10.0 mi NE 5.8 mph - 0.15 in Rain Light Rain
1:53 AM 48.0 °F 43.0 °F 83% 30.14 in 10.0 mi North 4.6 mph - 0.00 in   Overcast
2:53 AM 48.9 °F 44.1 °F 83% 30.15 in 10.0 mi NNW 4.6 mph - N/A   Overcast
3:53 AM 48.0 °F 43.0 °F 83% 30.13 in 10.0 mi North 3.5 mph - N/A   Overcast
4:53 AM 48.9 °F 43.0 °F 80% 30.14 in 10.0 mi North 5.8 mph - N/A   Overcast
5:53 AM 48.0 °F 42.1 °F 80% 30.15 in 10.0 mi North 6.9 mph - N/A   Overcast
6:53 AM 48.0 °F 42.1 °F 80% 30.17 in 10.0 mi North 6.9 mph - N/A   Overcast
7:53 AM 48.0 °F 42.1 °F 80% 30.20 in 10.0 mi North 5.8 mph - N/A   Overcast
8:53 AM 48.9 °F 41.0 °F 74% 30.22 in 10.0 mi NNW 8.1 mph - N/A   Overcast
9:53 AM 50.0 °F 41.0 °F 71% 30.23 in 10.0 mi North 8.1 mph - N/A   Overcast
10:53 AM 53.1 °F 39.0 °F 59% 30.25 in 10.0 mi North 9.2 mph 17.3 mph N/A   Overcast
11:53 AM 55.9 °F 37.9 °F 51% 30.23 in 10.0 mi Variable 6.9 mph - N/A   Clear
12:53 PM 59.0 °F 36.0 °F 42% 30.19 in 10.0 mi ENE 5.8 mph 19.6 mph N/A   Clear
1:53 PM 62.1 °F 36.0 °F 38% 30.17 in 10.0 mi NNW 5.8 mph - N/A   Clear
2:53 PM 63.0 °F 37.0 °F 38% 30.15 in 10.0 mi NNW 5.8 mph - N/A   Clear
3:53 PM 63.0 °F 37.9 °F 40% 30.13 in 10.0 mi NNW 5.8 mph - N/A   Clear
4:53 PM 61.0 °F 39.9 °F 46% 30.14 in 10.0 mi NNW 9.2 mph - N/A   Partly Cloudy
5:53 PM 57.0 °F 39.9 °F 53% 30.15 in 10.0 mi North 5.8 mph - N/A   Clear
6:53 PM 55.0 °F 39.9 °F 57% 30.15 in 10.0 mi North 4.6 mph - N/A   Clear
7:53 PM 54.0 °F 39.9 °F 59% 30.15 in 10.0 mi North 4.6 mph - N/A   Clear
8:53 PM 53.1 °F 39.9 °F 61% 30.16 in 10.0 mi North 3.5 mph - N/A   Clear
9:53 PM 52.0 °F 41.0 °F 66% 30.17 in 10.0 mi North 4.6 mph - N/A   Clear
10:53 PM 53.1 °F 41.0 °F 64% 30.18 in 10.0 mi Calm Calm - N/A   Mostly Cloudy
11:53 PM 50.0 °F 43.0 °F 77% 30.18 in 7.0 mi North 4.6 mph - 0.02 in Rain Rain